QPF
0.00 0.00 0.00 0.00 0.00 0.00 0.00 0.00 0.00 0.00 0.00 0.00 0.00 0.00 0.00 0.00 0.00 0.00 0.00 0.00 0.00 0.00 0.00 0.00 0.00 0.00 0.00 0.00 0.00 0.00 0.00 0.00 0.00 0.00 0.00 0.00 0.00 0.00 0.00 0.00 0.00 0.00 0.00 0.00 0.00
0.00 0.00 0.00 0.00 0.00 0.00 0.00 0.00 0.00 0.00 0.00 0.00 0.00 0.00 0.00 0.00 0.00 0.00 0.00 0.00 0.00 0.00 0.00 0.00 0.00 0.00 0.00 0.00 0.00 0.00 0.00 0.00 0.00 0.00 0.00 0.00 0.00 0.00 0.00 0.00 0.00 0.00 0.00 0.00 0.00
0.00 0.00 0.00 0.00 0.00 0.00 0.00 0.00 0.00 0.00 0.00 0.00 0.00 0.00 0.00 0.00 0.00 0.00 0.00 0.00 0.00 0.00 0.00 0.00 0.00 0.00 0.00 0.00 0.00 0.00 0.00 0.00 0.00 0.00 0.00 0.00 0.00 0.00 0.00 0.00 0.00 0.00 0.00 0.00 0.00
0.00 0.00 0.00 0.00 0.00 0.00 0.00 0.00 0.00 0.00 0.00 0.00 0.00 0.00 0.00 0.00 0.00 0.00 0.00 0.00 0.00 0.00 0.00 0.00 0.00 0.00 0.00 0.00 0.00 0.00 0.00 0.00 0.00 0.00 0.00 0.00 0.00 0.00 0.00 0.00 0.00 0.00 0.00 0.00 0.00
0.00 0.00 0.00 0.00 0.00 0.00 0.00 0.00 0.00 0.00 0.00 0.00 0.00 0.00 0.00 0.00 0.00 0.00 0.00 0.00 0.00 0.00 0.00 0.00 0.00 0.00 0.00 0.00 0.00 0.00 0.00 0.00 0.00 0.00 0.00 0.00 0.00 0.00 0.00 0.00 0.00 0.00 0.00 0.00 0.00
0.00 0.00 0.00 0.00 0.00 0.00 0.00 0.00 0.00 0.00 0.00 0.00 0.00 0.00 0.00 0.00 0.00 0.00 0.00 0.00 0.00 0.00 0.00 0.00 0.00 0.00 0.00 0.00 0.00 0.00 0.00 0.00 0.00 0.00 0.00 0.00 0.00 0.00 0.00 0.00 0.00 0.00 0.00 0.00 0.00
0.00 0.00 0.00 0.00 0.00 0.00 0.00 0.00 0.00 0.00 0.00 0.00 0.00 0.00 0.00 0.00 0.00 0.00 0.00 0.00 0.00 0.00 0.00 0.00 0.00 0.00 0.00 0.00 0.00 0.00 0.00 0.00 0.00 0.00 0.00 0.00 0.00 0.00 0.00 0.00 0.00 0.00 0.00 0.00 0.00
0.00 0.00 0.00 0.00 0.00 0.00 0.00 0.00 0.00 0.00 0.00 0.00 0.00 0.00 0.00 0.00 0.00 0.00 0.00 0.00 0.00 0.00 0.00 0.00 0.00 0.00 0.00 0.00 0.00 0.00 0.00 0.00 0.00 0.00 0.00 0.00 0.00 0.00 0.00 0.00 0.00 0.00 0.00 0.00 0.00
0.00 0.00 0.00 0.00 0.00 0.00 0.00 0.00 0.00 0.00 0.00 0.00 0.00 0.00 0.00 0.00 0.00 0.00 0.00 0.00 0.00 0.00 0.00 0.00 0.00 0.00 0.00 0.00 0.00 0.00 0.00 0.00 0.00 0.00 0.00 0.00 0.00 0.00 0.00 0.00 0.00 0.00 0.00 0.00 0.00
0.00 0.00 0.00 0.00 0.00 0.00 0.00 0.00 0.00 0.00 0.00 0.00 0.00 0.00 0.00 0.00 0.00 0.00 0.00 0.00 0.00 0.00 0.00 0.00 0.00 0.00 0.00 0.00 0.00 0.00 0.00 0.00 0.00 0.00 0.00 0.00 0.00 0.00 0.00 0.00 0.00 0.00 0.00 0.00 0.00
0.00 0.00 0.00 0.00 0.00 0.00 0.00 0.00 0.00 0.00 0.00 0.00 0.00 0.00 0.00 0.00 0.00 0.00 0.00 0.00 0.00 0.00 0.00 0.00 0.00 0.00 0.00 0.00 0.00 0.00 0.00 0.00 0.00 0.00 0.00 0.00 0.00 0.00 0.00 0.00 0.00 0.00 0.00 0.00 0.00
0.00 0.00 0.00 0.00 0.00 0.00 0.00 0.00 0.00 0.00 0.00 0.00 0.00 0.00 0.00 0.00 0.00 0.00 0.00 0.00 0.00 0.00 0.00 0.00 0.00 0.00 0.00 0.00 0.00 0.00 0.00 0.00 0.00 0.00 0.00 0.00 0.00 0.00 0.00 0.00 0.00 0.00 0.00 0.00 0.00
0.00 0.00 0.00 0.00 0.00 0.00 0.00 0.00 0.00 0.00 0.00 0.00 0.00 0.00 0.00 0.00 0.00 0.00 0.00 0.00 0.00 0.00 0.00 0.00 0.00 0.00 0.00 0.00 0.00 0.00 0.00 0.00 0.00 0.00 0.00 0.00 0.00 0.00 0.00 0.00 0.00 0.00 0.00 0.00 0.00
0.00 0.00 0.00 0.00 0.00 0.00 0.00 0.00 0.00 0.00 0.00 0.00 0.00 0.00 0.00 0.00 0.00 0.00 0.00 0.00 0.00 0.00 0.00 0.00 0.00 0.00 0.00 0.00 0.00 0.00 0.00 0.00 0.00 0.00 0.00 0.00 0.00 0.00 0.00 0.00 0.00 0.00 0.00 0.00 0.00
0.00 0.00 0.00 0.00 0.00 0.00 0.00 0.00 0.00 0.00 0.00 0.00 0.00 0.00 0.00 0.00 0.00 0.00 0.00 0.00 0.00 0.00 0.00 0.00 0.00 0.00 0.00 0.00 0.00 0.00 0.00 0.00 0.00 0.00 0.00 0.00 0.00 0.00 0.00 0.00 0.00 0.00 0.00 0.00 0.00
0.00 0.00 0.00 0.00 0.00 0.00 0.00 0.00 0.00 0.00 0.00 0.00 0.00 0.00 0.00 0.00 0.00 0.00 0.00 0.00 0.00 0.00 0.00 0.00 0.00 0.00 0.00 0.00 0.00 0.00 0.00 0.00 0.00 0.00 0.00 0.00 0.00 0.00 0.00 0.00 0.00 0.00 0.00 0.00 0.00
0.00 0.00 0.00 0.00 0.00 0.00 0.00 0.00 0.00 0.00 0.00 0.00 0.00 0.00 0.00 0.00 0.00 0.00 0.00 0.00 0.00 0.00 0.00 0.00 0.00 0.00 0.00 0.00 0.00 0.00 0.00 0.00 0.00 0.00 0.00 0.00 0.00 0.00 0.00 0.00 0.00 0.00 0.00 0.00 0.00
0.00 0.00 0.00 0.00 0.00 0.00 0.00 0.00 0.00 0.00 0.00 0.00 0.00 0.00 0.00 0.00 0.00 0.00 0.00 0.00 0.00 0.00 0.00 0.00 0.00 0.00 0.00 0.00 0.00 0.00 0.00 0.00 0.00 0.00 0.00 0.00 0.00 0.00 0.00 0.00 0.00 0.00 0.00 0.00 0.00
0.00 0.00 0.00 0.00 0.00 0.00 0.00 0.00 0.00 0.00 0.00 0.00 0.00 0.00 0.00 0.00 0.00 0.00 0.00 0.00 0.00 0.00 0.00 0.00 0.00 0.00 0.00 0.00 0.00 0.00 0.00 0.00 0.00 0.00 0.00 0.00 0.00 0.00 0.00 0.00 0.00 0.00 0.00 0.00 0.00
0.00 0.00 0.00 0.00 0.00 0.00 0.00 0.00 0.00 0.00 0.00 0.00 0.00 0.00 0.00 0.00 0.00 0.00 0.00 0.00 0.00 0.00 0.00 0.00 0.00 0.00 0.00 0.00 0.00 0.00 0.00 0.00 0.00 0.00 0.00 0.00 0.00 0.00 0.00 0.00 0.00 0.00 0.00 0.00 0.00
0.00 0.00 0.00 0.00 0.00 0.00 0.00 0.00 0.00 0.00 0.00 0.00 0.00 0.00 0.00 0.00 0.00 0.00 0.00 0.00 0.00 0.00 0.00 0.00 0.00 0.00 0.00 0.00 0.00 0.00 0.00 0.00 0.00 0.00 0.00 0.00 0.00 0.00 0.00 0.00 0.00 0.00 0.00 0.00 0.00
0.00 0.00 0.00 0.00 0.00 0.00 0.00 0.00 0.00 0.00 0.00 0.00 0.00 0.00 0.00 0.00 0.00 0.00 0.00 0.00 0.00 0.00 0.00 0.00 0.00 0.00 0.00 0.00 0.00 0.00 0.00 0.00 0.00 0.00 0.00 0.00 0.00 0.00 0.00 0.00 0.00 0.00 0.00 0.00 0.00
0.00 0.00 0.00 0.00 0.00 0.00 0.00 0.00 0.00 0.00 0.00 0.00 0.00 0.00 0.00 0.00 0.00 0.00 0.00 0.00 0.00 0.00 0.00 0.00 0.00 0.00 0.00 0.00 0.00 0.00 0.00 0.00 0.00 0.00 0.00 0.00 0.00 0.00 0.00 0.00 0.00 0.00 0.00 0.00 0.00
0.00 0.00 0.00 0.00 0.00 0.00 0.00 0.00 0.00 0.00 0.00 0.00 0.00 0.00 0.00 0.00 0.00 0.00 0.00 0.00 0.00 0.00 0.00 0.00 0.00 0.00 0.00 0.00 0.00 0.00 0.00 0.00 0.00 0.00 0.00 0.00 0.00 0.00 0.00 0.00 0.00 0.00 0.00 0.00 0.00
0.00 0.00 0.00 0.00 0.00 0.00 0.00 0.00 0.00 0.00 0.00 0.00 0.00 0.00 0.00 0.00 0.00 0.00 0.00 0.00 0.00 0.00 0.00 0.00 0.00 0.00 0.00 0.00 0.00 0.00 0.00 0.00 0.00 0.00 0.00 0.00 0.00 0.00 0.00 0.00 0.00 0.00 0.00 0.00 0.00
0.00 0.00 0.00 0.00 0.00 0.00 0.00 0.00 0.00 0.00 0.00 0.00 0.00 0.00 0.00 0.00 0.00 0.00 0.00 0.00 0.00 0.00 0.00 0.00 0.00 0.00 0.00 0.00 0.00 0.00 0.00 0.00 0.00 0.00 0.00 0.00 0.00 0.00 0.00 0.00 0.00 0.00 0.00 0.00 0.00
0.00 0.00 0.00 0.00 0.00 0.00 0.00 0.00 0.00 0.00 0.00 0.00 0.00 0.00 0.00 0.00 0.00 0.00 0.00 0.00 0.00 0.00 0.00 0.00 0.00 0.00 0.00 0.00 0.00 0.00 0.00 0.00 0.00 0.00 0.00 0.00 0.00 0.00 0.00 0.00 0.00 0.00 0.00 0.00 0.00
MSLP
1017.12 1016.68 1016.22 1015.73 1015.31 1014.95 1014.59 1014.22 1013.91 1013.69 1013.46 1013.21 1013.01 1012.81 1012.60 1012.44 1012.08 1012.09 1010.99 1009.20 1009.27 1009.42 1009.70 1010.28 1010.44 1010.66 1010.90 1011.29 1011.59 1012.33 1013.78 1014.40 1013.08 1012.20 1010.93 1010.12 1009.65 1008.75 1008.47 1008.61 1008.72 1008.64 1008.63 1008.84 1009.27
1017.25 1016.70 1016.19 1015.75 1015.33 1014.91 1014.48 1014.05 1013.74 1013.51 1013.27 1012.99 1012.74 1012.64 1012.52 1012.39 1012.09 1010.98 1008.49 1008.56 1008.93 1009.21 1009.74 1010.22 1010.55 1010.71 1011.22 1011.45 1011.83 1012.40 1013.56 1013.37 1012.02 1011.33 1010.80 1010.15 1009.47 1009.05 1008.70 1008.70 1008.73 1008.49 1008.78 1009.28 1009.57
1017.35 1016.70 1016.14 1015.68 1015.27 1014.83 1014.36 1013.90 1013.54 1013.27 1013.03 1012.77 1012.52 1012.38 1012.29 1012.25 1011.55 1008.96 1007.83 1008.31 1008.80 1009.14 1009.54 1009.96 1010.28 1010.58 1011.16 1011.40 1011.70 1012.15 1012.56 1012.16 1011.15 1010.76 1010.54 1010.00 1009.46 1008.55 1008.41 1008.81 1008.63 1008.28 1008.71 1009.62 1009.90
1017.39 1016.76 1016.15 1015.59 1015.11 1014.66 1014.23 1013.73 1013.30 1013.01 1012.81 1012.62 1012.39 1012.20 1012.02 1011.97 1010.63 1008.28 1007.90 1008.30 1008.87 1009.15 1009.56 1010.01 1010.34 1010.80 1011.23 1011.38 1011.39 1011.62 1011.38 1011.25 1010.64 1010.06 1010.08 1009.65 1009.13 1008.59 1008.28 1007.91 1007.65 1007.72 1008.61 1009.15 1009.80
1017.40 1016.71 1016.08 1015.46 1014.89 1014.37 1013.92 1013.47 1013.08 1012.76 1012.51 1012.36 1012.22 1012.02 1011.84 1011.37 1009.68 1008.33 1008.13 1008.59 1009.08 1009.41 1009.77 1010.06 1010.29 1010.70 1011.04 1011.10 1011.14 1011.26 1010.87 1010.67 1010.07 1009.86 1009.53 1009.21 1008.81 1008.94 1008.27 1007.57 1007.66 1007.76 1008.60 1009.26 1009.67
1017.29 1016.66 1015.99 1015.29 1014.62 1014.02 1013.54 1013.08 1012.73 1012.43 1012.20 1012.09 1012.01 1011.86 1011.69 1010.71 1008.27 1008.24 1008.59 1008.92 1009.16 1009.49 1009.78 1009.90 1010.02 1010.20 1010.62 1010.83 1010.89 1010.72 1010.59 1010.19 1009.75 1009.43 1009.21 1008.96 1008.74 1008.64 1008.33 1007.83 1008.16 1008.36 1008.53 1009.35 1009.56
1017.12 1016.45 1015.80 1015.12 1014.38 1013.69 1013.11 1012.62 1012.26 1012.01 1011.84 1011.82 1011.83 1011.73 1011.23 1009.20 1008.12 1008.31 1008.63 1008.87 1008.98 1009.20 1009.56 1009.62 1009.70 1010.11 1010.29 1010.57 1010.59 1010.56 1010.64 1010.19 1009.57 1009.15 1008.93 1008.81 1009.00 1008.80 1008.13 1008.25 1008.40 1008.82 1009.27 1009.28 1009.45
1017.03 1016.25 1015.56 1014.86 1014.12 1013.38 1012.66 1012.12 1011.80 1011.53 1011.45 1011.51 1011.64 1011.54 1010.37 1008.19 1008.10 1008.31 1008.52 1008.69 1008.85 1009.03 1009.21 1009.35 1009.55 1009.97 1010.34 1010.55 1010.85 1011.01 1010.96 1010.59 1009.66 1009.21 1008.65 1008.94 1009.40 1008.77 1008.10 1008.62 1008.65 1008.81 1009.19 1009.51 1009.47
1016.90 1016.09 1015.27 1014.48 1013.75 1013.06 1012.32 1011.72 1011.26 1011.37 1011.38 1011.57 1011.72 1011.22 1009.51 1007.93 1007.91 1007.45 1007.89 1008.15 1008.46 1008.82 1009.02 1009.18 1009.42 1010.42 1010.74 1011.41 1011.87 1012.02 1011.54 1010.93 1010.05 1009.17 1009.08 1009.09 1009.16 1008.37 1008.24 1008.40 1008.91 1008.87 1009.07 1009.43 1009.48
1016.72 1015.80 1014.94 1014.14 1013.38 1012.78 1011.99 1011.69 1011.44 1011.41 1011.63 1011.62 1011.33 1011.21 1008.90 1007.68 1007.17 1007.21 1007.63 1007.99 1008.41 1008.62 1008.97 1009.41 1010.30 1011.17 1012.01 1012.27 1012.79 1012.57 1011.99 1011.29 1010.57 1009.73 1009.39 1009.48 1009.06 1008.63 1008.55 1008.50 1008.65 1009.43 1009.53 1009.56 1009.59
1016.75 1015.71 1014.76 1013.92 1013.08 1012.59 1011.96 1011.79 1012.10 1011.73 1011.39 1010.41 1009.87 1009.10 1007.90 1007.02 1006.61 1006.94 1007.40 1008.17 1008.65 1009.12 1009.75 1010.24 1011.15 1011.41 1011.74 1011.93 1011.85 1011.99 1011.97 1011.66 1010.45 1009.64 1009.72 1009.54 1009.49 1008.92 1008.81 1008.81 1009.40 1009.46 1009.62 1009.98 1009.96
1016.75 1015.69 1014.42 1013.60 1012.77 1012.29 1012.29 1012.06 1012.18 1012.09 1010.96 1009.19 1008.11 1007.88 1007.32 1006.98 1007.03 1006.95 1007.14 1008.15 1008.76 1009.48 1010.06 1010.82 1010.90 1010.72 1011.04 1011.30 1011.58 1011.75 1011.68 1011.17 1010.45 1009.56 1009.97 1009.86 1009.93 1009.51 1009.39 1010.19 1010.85 1010.60 1010.70 1010.68 1010.26
1016.67 1015.66 1014.40 1013.33 1012.50 1012.10 1012.26 1011.73 1011.54 1011.57 1011.38 1008.13 1007.44 1006.97 1006.60 1007.01 1007.06 1006.47 1007.06 1007.51 1008.47 1009.55 1009.99 1010.55 1010.03 1009.91 1010.39 1010.63 1010.95 1010.95 1011.17 1010.77 1010.66 1010.29 1010.32 1010.49 1010.79 1010.55 1010.48 1010.96 1011.36 1011.66 1011.99 1011.75 1011.43
1016.41 1015.36 1014.61 1013.16 1012.61 1012.87 1011.98 1011.21 1011.10 1011.10 1011.02 1008.55 1006.88 1005.99 1006.26 1006.41 1006.57 1005.91 1006.22 1007.06 1008.20 1008.73 1009.90 1010.21 1009.46 1009.53 1009.73 1009.99 1010.11 1010.27 1009.99 1010.29 1010.60 1011.08 1011.55 1011.26 1012.06 1011.71 1011.86 1012.40 1012.62 1012.79 1012.70 1012.62 1012.39
1015.98 1015.09 1014.39 1013.74 1013.85 1012.74 1011.68 1010.99 1010.68 1010.92 1010.84 1007.79 1006.32 1005.35 1005.93 1006.31 1005.68 1005.62 1005.69 1006.40 1007.39 1008.34 1009.41 1009.30 1008.92 1008.97 1009.07 1009.12 1009.32 1009.41 1009.38 1010.16 1010.59 1011.56 1012.14 1012.44 1013.00 1012.49 1012.77 1013.59 1013.91 1013.87 1013.69 1013.25 1012.76
1015.77 1014.85 1014.23 1013.95 1014.03 1012.30 1011.73 1011.35 1010.88 1011.57 1010.33 1007.99 1006.91 1006.61 1006.94 1006.51 1006.20 1005.91 1006.17 1006.39 1006.99 1008.24 1008.78 1008.73 1008.43 1008.32 1008.20 1008.35 1008.74 1008.95 1009.75 1010.96 1011.94 1012.68 1013.32 1012.96 1013.41 1014.03 1014.24 1014.45 1014.61 1014.59 1014.43 1014.15 1013.46
1015.35 1014.55 1013.95 1013.98 1013.40 1012.26 1011.77 1011.78 1012.46 1011.76 1009.99 1009.47 1008.58 1008.01 1007.85 1007.76 1007.37 1007.25 1007.22 1007.80 1008.48 1009.16 1009.24 1009.09 1008.67 1008.27 1008.01 1008.52 1008.98 1009.59 1010.95 1012.39 1013.38 1013.96 1013.92 1013.48 1013.95 1014.38 1014.71 1014.83 1014.95 1015.14 1014.97 1014.49 1013.87
1015.23 1014.40 1013.91 1013.22 1012.76 1012.55 1012.19 1012.65 1013.07 1011.94 1011.10 1010.27 1009.79 1009.28 1009.21 1009.19 1008.82 1008.79 1008.80 1009.71 1009.84 1010.06 1010.41 1010.02 1009.58 1008.97 1008.60 1008.70 1009.17 1010.10 1011.23 1012.93 1014.00 1014.91 1014.67 1014.16 1014.37 1014.50 1014.85 1015.27 1015.51 1015.52 1015.46 1015.09 1014.39
1015.32 1014.49 1014.02 1013.00 1012.43 1012.49 1013.16 1013.90 1013.16 1012.54 1011.80 1011.26 1010.64 1010.45 1010.57 1010.42 1010.38 1010.20 1011.14 1011.75 1011.77 1011.50 1011.45 1011.18 1010.48 1009.83 1009.36 1009.46 1009.81 1010.79 1011.85 1012.57 1014.17 1015.59 1015.81 1015.05 1015.25 1015.49 1015.65 1015.97 1016.16 1016.13 1015.85 1015.55 1015.16
1017.26 1016.27 1014.41 1012.89 1012.50 1012.74 1013.90 1014.20 1013.45 1012.52 1012.08 1011.66 1011.72 1011.86 1011.98 1011.81 1011.53 1011.72 1012.70 1013.15 1012.89 1012.70 1012.03 1012.26 1011.77 1011.11 1010.57 1010.40 1010.64 1010.98 1012.22 1013.64 1015.01 1016.32 1016.72 1016.07 1015.77 1015.69 1016.29 1016.37 1016.53 1016.54 1016.56 1016.31 1015.74
1017.69 1016.56 1014.03 1013.04 1012.75 1014.09 1015.18 1014.81 1013.60 1012.49 1012.27 1012.32 1012.35 1012.57 1012.90 1013.11 1012.86 1012.92 1013.55 1013.64 1013.46 1013.46 1013.37 1013.36 1013.27 1012.80 1012.34 1012.91 1013.09 1013.01 1013.58 1014.77 1015.76 1016.65 1017.10 1017.33 1016.60 1016.31 1016.65 1016.93 1017.18 1017.10 1016.95 1016.59 1016.24
1019.38 1017.81 1014.52 1013.36 1014.63 1016.23 1016.34 1015.59 1014.22 1013.08 1012.64 1012.60 1012.84 1013.04 1013.47 1013.65 1013.92 1014.08 1014.59 1014.57 1014.28 1014.12 1014.34 1014.68 1015.32 1014.79 1014.44 1014.43 1014.33 1013.94 1015.39 1016.17 1017.30 1018.25 1018.34 1018.06 1017.13 1016.78 1016.93 1017.04 1017.18 1017.19 1017.07 1016.62 1016.20
1021.11 1019.34 1015.40 1014.78 1017.03 1017.87 1017.01 1015.91 1014.82 1013.78 1013.19 1013.01 1013.21 1013.29 1013.64 1014.22 1014.62 1014.68 1014.90 1015.08 1014.86 1014.97 1015.36 1015.53 1016.12 1016.19 1015.58 1015.50 1015.08 1015.58 1016.33 1016.86 1017.84 1018.71 1018.90 1018.91 1017.68 1017.19 1017.19 1017.32 1017.27 1017.12 1016.72 1016.22 1015.78
1021.67 1020.85 1018.81 1018.36 1019.25 1019.11 1018.61 1017.26 1015.88 1014.43 1013.88 1013.61 1013.84 1013.94 1014.02 1014.76 1014.94 1015.21 1015.34 1015.45 1015.46 1015.47 1015.74 1015.97 1016.89 1016.91 1016.65 1016.19 1016.32 1016.52 1016.77 1017.35 1018.18 1019.34 1018.87 1018.28 1017.74 1017.56 1017.20 1017.03 1016.90 1016.86 1016.67 1016.38 1016.17
1022.74 1022.98 1022.63 1021.38 1020.59 1020.24 1019.57 1018.42 1017.21 1015.99 1014.89 1014.56 1014.70 1014.63 1014.83 1015.20 1015.31 1015.54 1015.84 1016.07 1016.14 1016.34 1016.61 1017.23 1017.97 1017.89 1017.33 1017.00 1017.02 1016.86 1016.86 1017.39 1018.12 1018.34 1018.74 1017.99 1017.70 1017.32 1017.12 1017.14 1017.16 1017.11 1016.98 1016.71 1016.22
1023.94 1024.10 1023.36 1022.46 1021.62 1020.85 1019.99 1019.16 1018.25 1017.46 1016.69 1015.66 1015.53 1015.47 1015.27 1015.68 1015.73 1015.86 1016.05 1016.45 1016.59 1017.16 1017.66 1018.35 1018.72 1018.84 1018.49 1017.75 1017.56 1017.39 1017.05 1017.14 1017.50 1017.70 1017.78 1017.85 1017.72 1017.25 1017.20 1017.28 1017.46 1017.51 1017.41 1017.07 1016.45
1024.55 1024.52 1024.25 1023.15 1022.30 1021.59 1020.72 1020.01 1019.10 1018.64 1017.38 1016.69 1016.45 1016.21 1016.14 1015.94 1015.70 1015.78 1016.03 1016.28 1016.56 1017.34 1018.26 1019.01 1019.57 1020.27 1019.82 1019.00 1018.45 1017.93 1016.69 1016.59 1016.82 1016.91 1017.13 1017.59 1017.42 1017.58 1017.70 1017.78 1017.70 1017.63 1017.21 1016.83 1016.43
Thickness
5720 5724 5727 5732 5735 5738 5741 5744 5746 5748 5750 5751 5752 5754 5755 5756 5760 5760 5764 5782 5784 5784 5782 5776 5774 5771 5769 5763 5765 5756 5719 5714 5739 5740 5757 5767 5766 5790 5800 5793 5799 5805 5808 5813 5814
5719 5723 5727 5730 5734 5737 5741 5745 5747 5748 5750 5752 5753 5754 5755 5756 5759 5762 5788 5788 5786 5784 5777 5769 5763 5764 5752 5756 5754 5740 5715 5724 5747 5755 5757 5758 5769 5775 5783 5786 5789 5798 5806 5805 5806
5717 5722 5727 5730 5733 5736 5741 5744 5747 5749 5751 5752 5754 5755 5755 5756 5759 5774 5792 5789 5785 5783 5779 5773 5769 5763 5751 5753 5749 5739 5725 5739 5753 5756 5758 5757 5759 5777 5775 5772 5783 5790 5798 5795 5794
5716 5721 5725 5729 5733 5737 5740 5744 5747 5750 5751 5752 5753 5754 5756 5756 5746 5782 5789 5786 5782 5780 5774 5767 5760 5750 5742 5743 5750 5743 5746 5748 5756 5764 5761 5757 5766 5768 5776 5784 5798 5802 5801 5796 5789
5714 5719 5724 5728 5733 5737 5741 5745 5747 5750 5752 5753 5753 5753 5755 5750 5756 5782 5784 5781 5777 5773 5765 5760 5754 5747 5739 5743 5747 5742 5748 5752 5757 5757 5758 5764 5758 5758 5769 5789 5795 5798 5794 5791 5788
5713 5717 5722 5728 5733 5739 5743 5746 5749 5751 5753 5753 5753 5752 5752 5739 5779 5779 5777 5774 5771 5765 5759 5757 5753 5752 5744 5742 5740 5746 5748 5750 5755 5759 5756 5757 5758 5760 5768 5782 5782 5783 5786 5784 5785
5712 5717 5722 5727 5733 5739 5745 5749 5752 5754 5754 5753 5752 5752 5748 5751 5776 5775 5773 5769 5768 5764 5754 5757 5757 5747 5745 5739 5746 5745 5738 5740 5752 5757 5756 5758 5748 5749 5767 5769 5772 5771 5771 5778 5780
5711 5717 5722 5728 5734 5740 5746 5751 5754 5755 5755 5754 5751 5751 5744 5775 5775 5772 5769 5765 5765 5762 5757 5758 5755 5746 5741 5743 5731 5730 5724 5714 5737 5744 5752 5746 5716 5746 5761 5755 5760 5764 5765 5766 5772
5709 5716 5722 5729 5735 5741 5748 5752 5755 5754 5752 5750 5748 5748 5743 5775 5766 5775 5770 5761 5759 5757 5754 5755 5750 5730 5729 5711 5697 5698 5696 5709 5718 5737 5740 5737 5726 5749 5756 5749 5747 5756 5759 5760 5762
5708 5716 5723 5729 5736 5741 5748 5750 5750 5749 5747 5746 5746 5737 5755 5758 5769 5770 5767 5761 5750 5748 5740 5735 5717 5707 5695 5689 5668 5682 5693 5700 5703 5722 5727 5720 5724 5737 5742 5745 5746 5742 5747 5751 5753
5705 5714 5722 5729 5735 5739 5744 5745 5739 5738 5742 5744 5745 5745 5754 5766 5771 5762 5760 5748 5742 5731 5711 5714 5698 5691 5693 5694 5697 5698 5691 5690 5703 5717 5720 5714 5720 5730 5735 5743 5739 5742 5741 5740 5742
5702 5710 5720 5728 5733 5736 5735 5733 5729 5729 5724 5746 5752 5750 5755 5757 5742 5750 5754 5729 5720 5702 5707 5695 5684 5697 5702 5697 5691 5686 5685 5684 5698 5712 5709 5708 5713 5722 5732 5724 5719 5722 5724 5727 5734
5700 5706 5715 5724 5730 5731 5728 5728 5729 5727 5711 5741 5746 5744 5745 5742 5729 5735 5736 5725 5712 5694 5692 5680 5696 5701 5698 5695 5688 5685 5678 5685 5690 5700 5704 5702 5692 5698 5715 5708 5711 5710 5710 5715 5720
5699 5704 5709 5719 5723 5716 5722 5725 5724 5721 5681 5709 5729 5738 5739 5736 5720 5740 5737 5723 5706 5693 5681 5677 5699 5695 5690 5685 5685 5678 5691 5693 5693 5680 5663 5690 5654 5680 5693 5686 5690 5692 5697 5701 5707
5697 5702 5706 5708 5704 5712 5717 5719 5719 5709 5648 5716 5723 5743 5730 5720 5730 5724 5734 5719 5698 5692 5680 5677 5688 5686 5681 5684 5687 5682 5699 5692 5691 5672 5667 5670 5650 5669 5681 5670 5672 5677 5683 5690 5696
5691 5696 5699 5698 5694 5705 5706 5706 5705 5660 5644 5692 5706 5698 5699 5708 5709 5716 5712 5716 5709 5687 5685 5682 5695 5688 5685 5691 5689 5695 5687 5666 5654 5649 5636 5659 5651 5644 5650 5660 5663 5667 5671 5676 5683
5685 5689 5691 5688 5690 5696 5696 5689 5649 5635 5679 5669 5675 5684 5683 5676 5685 5685 5686 5670 5664 5652 5655 5670 5675 5685 5689 5677 5680 5673 5654 5629 5630 5628 5629 5653 5644 5639 5650 5656 5657 5655 5658 5665 5672
5678 5682 5682 5683 5683 5682 5681 5656 5635 5649 5654 5666 5665 5665 5658 5659 5663 5663 5661 5644 5652 5650 5638 5639 5637 5662 5676 5673 5662 5664 5651 5622 5617 5612 5629 5639 5629 5629 5644 5642 5644 5647 5648 5653 5660
5670 5673 5674 5677 5677 5673 5655 5623 5625 5637 5644 5641 5648 5642 5640 5644 5644 5645 5630 5625 5628 5632 5632 5628 5636 5658 5662 5664 5665 5652 5638 5645 5617 5609 5603 5620 5622 5626 5627 5625 5626 5630 5636 5640 5645
5645 5648 5660 5667 5668 5659 5631 5618 5626 5637 5634 5634 5623 5625 5615 5620 5626 5627 5608 5614 5615 5620 5629 5622 5622 5638 5648 5654 5651 5648 5641 5622 5604 5600 5590 5600 5612 5608 5608 5611 5613 5615 5618 5625 5631
5632 5639 5653 5656 5655 5630 5609 5608 5620 5631 5627 5618 5612 5609 5607 5602 5607 5608 5597 5605 5606 5608 5609 5607 5607 5616 5625 5608 5609 5615 5612 5603 5601 5590 5585 5582 5591 5599 5599 5600 5599 5601 5605 5608 5614
5604 5621 5639 5644 5617 5588 5597 5600 5611 5614 5614 5608 5603 5600 5595 5594 5589 5586 5579 5583 5591 5592 5586 5586 5577 5582 5593 5594 5599 5606 5591 5582 5574 5579 5565 5566 5572 5592 5587 5589 5589 5588 5592 5598 5603
5580 5584 5622 5623 5587 5576 5584 5593 5599 5599 5599 5597 5592 5593 5587 5579 5573 5575 5571 5577 5580 5580 5576 5578 5561 5555 5572 5578 5588 5579 5579 5574 5553 5542 5558 5553 5565 5576 5574 5574 5574 5577 5581 5586 5591
5570 5576 5581 5577 5561 5568 5561 5571 5576 5589 5587 5586 5579 5577 5573 5565 5563 5560 5562 5566 5568 5570 5570 5568 5551 5557 5550 5567 5569 5567 5568 5567 5553 5513 5548 5544 5561 5563 5562 5563 5564 5563 5564 5567 5569
5549 5547 5540 5542 5550 5545 5549 5555 5559 5561 5571 5570 5565 5565 5560 5552 5553 5551 5550 5550 5554 5554 5549 5547 5542 5545 5552 5554 5555 5557 5560 5557 5546 5546 5538 5554 5552 5555 5552 5553 5551 5550 5548 5552 5557
5530 5522 5522 5522 5526 5534 5535 5545 5546 5544 5547 5555 5552 5553 5553 5545 5545 5541 5543 5539 5541 5539 5535 5520 5525 5532 5537 5545 5543 5541 5546 5546 5542 5541 5533 5533 5533 5544 5539 5536 5534 5528 5527 5530 5536
5509 5506 5504 5511 5512 5520 5520 5523 5531 5528 5538 5541 5540 5539 5538 5539 5543 5543 5540 5538 5539 5533 5523 5514 5501 5494 5508 5524 5526 5516 5538 5538 5539 5539 5538 5530 5532 5522 5521 5516 5515 5510 5510 5514 5517